1486990801.14,25273,11.69,74238.5,5.33,-44.27,-44.33,0,*7C
1486990802.36,25274,11.69,74234.0,5.33,-44.67,-44.53,0,*79
1486990803.59,25275,11.69,74238.5,5.33,-44.87,-44.73,0,*74
1486990804.8,25276,11.69,74238.5,5.33,-45.81,-45.95,0,*79
1486990806.0,25277,11.69,74234.5,5.33,-47.51,-47.65,0,*7A
1486990807.27,25278,11.69,74234.5,5.31,-46.49,-46.61,0,*7A
1486990808.47,25279,11.69,74234.0,5.29,-44.61,-44.61,0,*78
1486990809.66,25280,11.69,74232.8,5.29,-43.35,-43.49,0,*75
1486990810.92,25281,11.69,74236.5,5.29,-43.55,-43.55,0,*7F
1486990812.17,25282,11.69,74234.0,5.31,-43.55,-43.49,0,*78
1486990813.44,25283,11.69,74234.8,5.31,-43.29,-43.29,0,*74
1486990814.66,25284,11.69,74232.0,5.33,-44.13,-44.07,0,*74
1486990815.91,25285,11.69,74234.3,5.33,-43.29,-43.29,0,*70
1486990817.15,25286,11.69,74236.3,5.33,-43.29,-43.29,0,*73
1486990818.4,25287,11.69,74232.5,5.33,-43.29,-43.21,0,*7A
1486990819.68,25288,11.69,74234.0,5.35,-43.29,-43.21,0,*73
1486990820.91,25289,11.69,74234.0,5.35,-43.49,-43.49,0,*7A
1486990822.11,25290,11.69,74236.0,5.37,-43.35,-43.41,0,*73
1486990823.32,25291,11.69,74232.8,5.37,-43.41,-43.41,0,*71
1486990824.52,25292,11.69,74234.3,5.37,-43.15,-43.01,0,*77
1486990825.74,25293,11.69,74236.3,5.37,-43.81,-43.75,0,*78
1486990826.97,25294,11.69,74236.5,5.37,-44.27,-44.21,0,*72
1486990828.2,25295,11.69,74232.5,5.37,-44.87,-45.07,0,*7C
1486990829.4,25296,11.69,74236.8,5.37,-44.61,-44.61,0,*76
1486990830.62,25297,11.69,74234.3,5.37,-43.21,-43.15,0,*70
1486990831.88,25298,11.69,74234.8,5.41,-42.95,-42.95,0,*79
1486990833.14,25299,11.69,74234.3,5.41,-43.09,-43.09,0,*78
1486990834.36,25300,11.69,74238.0,5.41,-42.51,-42.31,0,*7F
1486990835.56,25301,11.69,74234.3,5.41,-43.87,-43.75,0,*75
1486990836.78,25302,11.69,74234.8,5.41,-44.01,-43.95,0,*71
1486990838.04,25303,11.69,74234.8,5.37,-44.13,-44.21,0,*7A
1486990839.26,25304,11.69,74234.3,5.41,-44.41,-44.21,0,*7B
1486990840.45,25305,11.69,74234.0,5.41,-45.33,-45.33,0,*7C
1486990841.67,25306,11.69,74234.0,5.37,-44.79,-44.67,0,*71
1486990842.88,25307,11.69,74236.3,5.41,-45.21,-45.33,0,*7D
1486990844.09,25308,11.69,74232.8,5.37,-44.87,-44.87,0,*70
1486990845.32,25309,11.69,74236.5,5.37,-44.27,-44.21,0,*77
1486990846.57,25310,11.69,74236.5,5.37,-44.01,-44.01,0,*79
1486990847.82,25311,11.69,74236.0,5.37,-42.83,-42.83,0,*78
1486990849.04,25312,11.69,74234.8,5.37,-43.35,-43.21,0,*7E
1486990850.23,25313,11.69,74236.5,5.41,-43.87,-43.75,0,*76
1486990851.47,25314,11.69,74236.0,5.37,-44.27,-44.21,0,*7B
1486990852.7,25315,11.69,74234.0,5.37,-45.21,-45.27,0,*7A
1486990853.91,25316,11.69,74234.0,5.37,-44.61,-44.47,0,*7B
1486990855.12,25317,11.69,74236.3,5.41,-43.49,-43.35,0,*74
1486990856.34,25318,11.69,74234.5,5.41,-42.75,-42.69,0,*7D
1486990857.54,25319,11.69,74236.5,5.41,-43.95,-43.95,0,*71
1486990858.75,25320,11.69,74234.3,5.37,-43.61,-43.61,0,*7A
1486990859.97,25321,11.69,74238.3,5.41,-43.55,-43.49,0,*77
1486990861.2,25322,11.69,74234.3,5.41,-43.29,-43.15,0,*76
1486990862.43,25323,11.69,74232.3,5.37,-43.41,-43.55,0,*7C
1486990863.65,25324,11.69,74232.0,5.41,-43.15,-43.09,0,*72
1486990864.88,25325,11.69,74236.0,5.41,-42.69,-42.63,0,*74
1486990866.1,25326,11.69,74234.0,5.41,-43.67,-43.49,0,*71
1486990867.29,25327,11.69,74232.3,5.41,-43.15,-42.89,0,*78
1486990868.52,25328,11.69,74234.5,5.41,-43.15,-42.95,0,*7A
1486990869.77,25329,11.75,74236.8,5.43,-43.41,-43.29,0,*7E
1486990871.05,25330,11.69,74234.0,5.43,-43.81,-43.67,0,*70
1486990872.32,25331,11.69,74236.3,5.43,-43.21,-43.09,0,*73
1486990873.57,25332,11.69,74234.3,5.43,-43.29,-43.41,0,*74
1486990874.81,25333,11.69,74232.8,5.45,-43.01,-42.95,0,*71
1486990876.0,25334,11.69,74234.0,5.45,-43.15,-43.15,0,*7A
1486990877.22,25335,11.75,74240.0,5.45,-43.81,-43.75,0,*70
1486990878.45,25336,11.69,74232.8,5.45,-43.55,-43.41,0,*7D
1486990879.66,25337,11.69,74236.8,5.49,-43.21,-43.01,0,*77
1486990880.89,25338,11.75,74236.5,5.49,-42.95,-43.01,0,*76
1486990882.1,25339,11.69,74238.0,5.45,-44.41,-44.47,0,*71
1486990883.32,25340,11.69,74234.0,5.45,-44.41,-44.21,0,*7F
1486990884.54,25341,11.69,74234.8,5.49,-44.01,-43.87,0,*7D
1486990885.76,25342,11.69,74236.3,5.45,-43.55,-43.61,0,*7C
1486990886.97,25343,11.69,74236.3,5.45,-43.01,-43.01,0,*7A
1486990888.18,25344,11.69,74232.8,5.49,-43.21,-43.01,0,*73
1486990889.45,25345,11.69,74234.3,5.51,-42.57,-42.57,0,*79
1486990890.65,25346,11.75,74238.5,5.45,-43.41,-43.41,0,*7F
1486990891.84,25347,11.69,74234.8,5.49,-43.15,-43.01,0,*77
1486990893.04,25348,11.75,74236.5,5.49,-43.41,-43.15,0,*7C
1486990894.26,25349,11.69,74234.0,5.49,-43.35,-43.21,0,*79
1486990895.46,25350,11.69,74234.8,5.49,-42.63,-42.63,0,*74
1486990896.65,25351,11.69,74236.3,5.49,-43.15,-43.15,0,*75
1486990897.88,25352,11.75,74236.3,5.53,-44.47,-44.47,0,*7D
1486990899.14,25353,11.69,74236.5,5.51,-46.89,-46.97,0,*71
1486990900.35,25354,11.69,74234.8,5.45,-46.97,-46.83,0,*79
1486990901.57,25355,11.69,74236.0,5.45,-45.07,-44.79,0,*75
1486990902.8,25356,11.75,74238.5,5.45,-43.75,-43.55,0,*7C
1486990904.02,25357,11.69,74234.0,5.45,-43.75,-43.55,0,*7D
1486990905.3,25358,11.69,74236.8,5.43,-43.67,-43.67,0,*76
1486990906.53,25359,11.69,74236.0,5.43,-43.95,-43.95,0,*77
1486990907.75,25360,11.69,74238.3,5.45,-44.07,-44.01,0,*7D
1486990908.98,25361,11.69,74234.5,5.45,-44.27,-44.21,0,*7C
1486990910.22,25362,11.69,74236.3,5.45,-44.01,-43.81,0,*76
1486990911.42,25363,11.69,74236.0,5.45,-43.75,-43.75,0,*78
1486990912.65,25364,11.69,74238.3,5.45,-43.61,-43.55,0,*78
1486990913.88,25365,11.75,74236.8,5.45,-43.55,-43.35,0,*78
1486990915.1,25366,11.69,74238.0,5.49,-44.47,-44.61,0,*75
1486990916.31,25367,11.75,74236.3,5.45,-45.73,-45.95,0,*74
1486990917.52,25368,11.69,74238.3,5.45,-44.87,-44.87,0,*73
1486990918.75,25369,11.69,74238.3,5.43,-43.61,-43.41,0,*76
1486990920.02,25370,11.75,74236.3,5.43,-44.67,-44.67,0,*7C
1486990921.27,25371,11.75,74236.5,5.43,-44.13,-44.07,0,*78
1486990922.55,25372,11.69,74236.3,5.43,-43.67,-43.67,0,*7E
1486990923.81,25373,11.69,74236.5,5.43,-43.81,-43.81,0,*7F
1486990925.03,25374,11.75,74238.8,5.43,-45.13,-45.13,0,*78
1486990926.28,25375,11.69,74236.5,5.43,-46.41,-46.55,0,*7C
1486990927.52,25376,11.75,74238.0,5.41,-44.33,-44.33,0,*78
1486990928.78,25377,11.69,74236.5,5.41,-43.09,-43.09,0,*79
1486990930.0,25378,11.69,74236.8,5.43,-42.89,-42.89,0,*74
1486990931.28,25379,11.69,74238.0,5.43,-43.81,-43.67,0,*7D
1486990932.51,25380,11.75,74238.3,5.43,-43.01,-43.01,0,*73
1486990933.73,25381,11.75,74236.8,5.49,-42.51,-42.31,0,*7E
1486990934.98,25382,11.75,74240.3,5.45,-42.31,-42.19,0,*7D
1486990936.19,25383,11.75,74240.0,5.45,-43.41,-43.41,0,*76
1486990937.4,25384,11.75,74238.3,5.49,-44.01,-43.87,0,*74
1486990938.61,25385,11.69,74236.5,5.49,-43.41,-43.41,0,*7C
1486990939.85,25386,11.75,74242.0,5.45,-43.81,-43.81,0,*73
1486990941.08,25387,11.75,74238.3,5.45,-43.61,-43.55,0,*75
1486990942.28,25388,11.75,74238.3,5.45,-43.61,-43.41,0,*7F
1486990943.51,25389,11.69,74236.8,5.49,-44.27,-44.21,0,*76
1486990944.74,25390,11.75,74240.5,5.45,-44.27,-44.21,0,*72
1486990945.93,25391,11.69,74236.0,5.45,-43.87,-43.75,0,*78
1486990947.13,25392,11.75,74236.0,5.45,-44.41,-44.27,0,*76
1486990948.35,25393,11.69,74238.8,5.45,-43.41,-43.21,0,*71
1486990949.58,25394,11.75,74240.0,5.45,-43.55,-43.35,0,*76
1486990950.78,25395,11.75,74240.5,5.49,-43.61,-43.61,0,*7D
1486990952.03,25396,11.69,74236.0,5.49,-43.55,-43.55,0,*7E
1486990953.24,25397,11.75,74236.0,5.49,-43.87,-43.81,0,*79
1486990954.43,25398,11.75,74236.5,5.49,-43.87,-43.75,0,*7D
1486990955.63,25399,11.75,74238.8,5.49,-43.61,-43.41,0,*73
1486990956.85,25400,11.69,74236.0,5.49,-43.81,-43.75,0,*7D
1486990958.05,25401,11.75,74240.0,5.49,-43.75,-43.61,0,*72
1486990959.24,25402,11.75,74238.8,5.49,-43.75,-43.75,0,*74
1486990960.47,25403,11.75,74238.5,5.49,-44.27,-44.21,0,*73
1486990961.69,25404,11.75,74238.5,5.49,-44.01,-43.87,0,*7B
1486990962.9,25405,11.69,74236.0,5.49,-44.01,-43.87,0,*7A
1486990964.12,25406,11.75,74242.0,5.49,-43.81,-43.75,0,*7B
1486990965.34,25407,11.75,74236.3,5.45,-44.01,-43.87,0,*74
1486990966.54,25408,11.75,74238.3,5.49,-44.61,-44.61,0,*7E
1486990967.78,25409,11.75,74238.3,5.49,-45.07,-45.07,0,*7F
1486990969.03,25410,11.69,74236.0,5.45,-46.07,-46.15,0,*78
1486990970.27,25411,11.75,74238.0,5.45,-44.67,-44.47,0,*78
1486990971.5,25412,11.75,74238.3,5.45,-44.27,-44.01,0,*7D
1486990972.74,25413,11.75,74240.5,5.45,-44.01,-43.81,0,*77
1486990973.96,25414,11.75,74236.3,5.45,-43.81,-43.75,0,*74
1486990975.18,25415,11.75,74236.3,5.45,-43.75,-43.81,0,*75
1486990976.38,25416,11.75,74240.5,5.45,-44.07,-43.87,0,*72
1486990977.58,25417,11.75,74238.8,5.45,-44.87,-44.79,0,*7D
1486990978.78,25418,11.75,74238.5,5.45,-44.07,-43.87,0,*7C
1486990980.03,25419,11.75,74238.3,5.43,-43.41,-43.21,0,*72
1486990981.23,25420,11.75,74238.5,5.45,-43.49,-43.41,0,*70
1486990982.46,25421,11.75,74238.5,5.45,-44.27,-44.21,0,*7F
1486990983.69,25422,11.75,74236.0,5.45,-43.75,-43.55,0,*78
1486990984.91,25423,11.75,74240.3,5.45,-42.75,-42.57,0,*7B
1486990986.14,25424,11.75,74238.5,5.49,-43.81,-43.81,0,*70
1486990987.37,25425,11.75,74236.5,5.45,-44.27,-44.21,0,*7B
1486990988.59,25426,11.75,74236.0,5.49,-43.21,-43.15,0,*75
1486990989.84,25427,11.75,74238.3,5.49,-43.81,-44.21,0,*7E
1486990991.07,25428,11.75,74240.5,5.45,-44.67,-44.47,0,*72
1486990992.3,25429,11.75,74238.8,5.49,-43.61,-43.55,0,*7A
1486990993.52,25430,11.75,74236.3,5.49,-43.35,-43.21,0,*70
1486990994.73,25431,11.69,74236.3,5.49,-43.21,-43.15,0,*73
1486990995.94,25432,11.75,74236.3,5.45,-43.75,-43.61,0,*7E
1486990997.14,25433,11.75,74240.3,5.45,-43.35,-43.41,0,*79
1486990998.34,25434,11.75,74240.0,5.49,-44.27,-44.07,0,*73
1486990999.56,25435,11.75,74242.0,5.45,-44.01,-44.07,0,*7A
1486991000.76,25436,11.75,74242.5,5.45,-43.75,-43.61,0,*7A
1486991002.01,25437,11.75,74236.5,5.49,-43.55,-43.55,0,*72
1486991003.23,25438,11.75,74236.0,5.49,-44.07,-44.01,0,*7B
1486991004.47,25439,11.75,74242.5,5.49,-44.01,-43.81,0,*73
1486991005.66,25440,11.75,74242.3,5.49,-44.61,-44.61,0,*72
1486991006.87,25441,11.75,74242.5,5.49,-44.67,-44.41,0,*77
1486991008.12,25442,11.75,74238.5,5.45,-44.01,-43.81,0,*73
1486991009.33,25443,11.75,74242.0,5.49,-43.21,-43.15,0,*76
1486991010.53,25444,11.75,74238.3,5.45,-43.35,-43.15,0,*78
1486991011.76,25445,11.75,74236.5,5.49,-44.27,-44.21,0,*71
1486991012.96,25446,11.75,74236.8,5.49,-44.79,-44.79,0,*74
1486991014.16,25447,11.75,74238.5,5.49,-44.27,-44.27,0,*75
1486991015.35,25448,11.75,74240.5,5.49,-44.41,-44.27,0,*7A
1486991016.59,25449,11.75,74236.5,5.49,-44.01,-43.81,0,*74
1486991017.79,25450,11.75,74240.0,5.45,-43.35,-43.01,0,*78
1486991018.98,25451,11.75,74242.5,5.49,-44.41,-44.41,0,*72
1486991020.18,25452,11.75,74242.3,5.45,-44.87,-44.87,0,*7D
1486991021.39,25453,11.75,74244.5,5.49,-45.53,-45.53,0,*70
1486991022.6,25454,11.75,74238.8,5.45,-43.87,-43.81,0,*7D
1486991023.82,25455,11.75,74242.5,5.45,-44.01,-43.87,0,*73
1486991025.04,25456,11.75,74240.0,5.45,-43.21,-43.01,0,*7B
1486991026.23,25457,11.75,74242.0,5.45,-44.41,-44.27,0,*78
1486991027.46,25458,11.75,74242.5,5.45,-44.21,-44.07,0,*73
1486991028.7,25459,11.75,74238.5,5.45,-43.55,-43.21,0,*75
1486991029.95,25460,11.75,74242.0,5.49,-43.55,-43.55,0,*70
1486991031.19,25461,11.75,74240.5,5.49,-44.67,-44.67,0,*71
1486991032.4,25462,11.75,74238.3,5.49,-44.67,-44.61,0,*74
1486991033.64,25463,11.75,74240.0,5.45,-45.27,-45.21,0,*79
1486991034.84,25464,11.75,74240.3,5.45,-44.79,-44.79,0,*78
1486991036.06,25465,11.75,74240.0,5.43,-44.07,-43.87,0,*70
1486991037.31,25466,11.75,74242.3,5.43,-43.49,-43.29,0,*7A
1486991038.54,25467,11.75,74240.0,5.45,-43.55,-43.35,0,*7D
1486991039.74,25468,11.75,74242.3,5.45,-43.41,-43.41,0,*74
1486991040.95,25469,11.75,74240.5,5.45,-43.61,-43.41,0,*77
1486991042.19,25470,11.75,74240.3,5.45,-44.67,-44.67,0,*7D
1486991043.41,25471,11.75,74242.3,5.45,-44.87,-44.67,0,*72
1486991044.63,25472,11.75,74238.8,5.43,-44.07,-43.87,0,*76
1486991045.91,25473,11.75,74240.3,5.43,-44.93,-44.93,0,*78
1486991047.16,25474,11.75,74238.3,5.43,-45.33,-45.27,0,*7A
1486991048.35,25475,11.75,74240.5,5.41,-45.61,-45.67,0,*7A
1486991049.6,25476,11.75,74242.8,5.43,-43.95,-43.81,0,*78
1486991050.82,25477,11.75,74240.5,5.41,-43.95,-43.67,0,*73
1486991052.07,25478,11.75,74242.3,5.43,-45.07,-45.13,0,*76
1486991053.27,25479,11.75,74242.5,5.41,-45.67,-45.61,0,*76
1486991054.51,25480,11.75,74242.5,5.41,-44.33,-44.33,0,*76
1486991055.71,25481,11.75,74238.3,5.41,-44.41,-44.41,0,*77
1486991056.96,25482,11.75,74242.0,5.41,-43.67,-43.55,0,*75
1486991058.17,25483,11.75,74240.0,5.41,-45.81,-45.87,0,*73
1486991059.39,25484,11.75,74238.0,5.41,-47.17,-47.37,0,*70
1486991060.62,25485,11.75,74240.8,5.37,-47.17,-47.37,0,*70
1486991061.84,25486,11.75,74242.5,5.37,-44.87,-44.67,0,*7F
1486991063.09,25487,11.75,74242.3,5.37,-45.07,-45.07,0,*70
1486991064.32,25488,11.75,74242.5,5.33,-46.35,-46.41,0,*78
1486991065.55,25489,11.75,74240.0,5.33,-44.87,-44.67,0,*74
1486991066.79,25490,11.75,74240.0,5.35,-44.07,-43.81,0,*7D
1486991068.04,25491,11.75,74242.8,5.33,-44.73,-44.67,0,*76
1486991069.24,25492,11.75,74240.8,5.33,-44.27,-44.27,0,*70
1486991070.47,25493,11.75,74238.5,5.35,-45.53,-45.33,0,*71
1486991071.72,25494,11.75,74244.0,5.33,-45.07,-45.07,0,*76
1486991072.94,25495,11.75,74240.8,5.33,-45.47,-45.33,0,*74
1486991074.18,25496,11.75,74238.8,5.33,-45.47,-45.47,0,*74
1486991075.41,25497,11.75,74240.5,5.33,-45.53,-45.47,0,*70
1486991076.63,25498,11.75,74240.5,5.29,-45.87,-45.81,0,*77
1486991077.87,25499,11.75,74238.5,5.29,-45.81,-45.81,0,*70
1486991079.1,25500,11.75,74242.3,5.29,-44.21,-44.07,0,*75
1486991080.35,25501,11.75,74240.8,5.29,-43.67,-43.55,0,*71
1486991081.54,25502,11.75,74240.0,5.29,-45.41,-45.41,0,*73
1486991082.78,25503,11.75,74240.8,5.29,-45.81,-45.81,0,*72
1486991084.06,25504,11.75,74236.3,5.31,-44.33,-44.13,0,*7E
1486991085.25,25505,11.75,74240.8,5.29,-43.95,-43.75,0,*7A
1486991086.46,25506,11.75,74236.0,5.29,-46.35,-46.55,0,*71
1486991087.68,25507,11.75,74236.8,5.29,-44.73,-44.53,0,*74
1486991088.95,25508,11.75,74240.5,5.31,-44.33,-44.21,0,*73
1486991090.14,25509,11.75,74244.0,5.29,-45.33,-44.99,0,*79
1486991091.37,25510,11.75,74240.8,5.25,-45.67,-45.27,0,*78
1486991092.58,25511,11.75,74238.8,5.25,-44.87,-44.79,0,*7C
1486991093.8,25512,11.75,74238.3,5.25,-44.79,-44.67,0,*71
1486991095.04,25513,11.75,74240.3,5.25,-44.27,-44.21,0,*79
1486991096.27,25514,11.75,74234.8,5.23,-44.87,-44.73,0,*75
1486991097.52,25515,11.75,74238.5,5.25,-45.07,-45.07,0,*79
1486991098.72,25516,11.75,74238.5,5.25,-44.99,-44.79,0,*74
1486991099.92,25517,11.75,74242.3,5.25,-44.41,-44.27,0,*7B
1486991101.12,25518,11.75,74240.3,5.25,-44.61,-44.41,0,*76
1486991102.34,25519,11.75,74240.8,5.23,-44.07,-44.01,0,*75
1486991103.58,25520,11.75,74242.3,5.23,-44.73,-44.67,0,*7C
1486991104.78,25521,11.75,74240.3,5.23,-45.41,-45.21,0,*7E
1486991105.99,25522,11.75,74236.8,5.23,-45.73,-45.67,0,*7E
1486991107.24,25523,11.75,74242.8,5.23,-44.73,-44.73,0,*7A
1486991108.44,25524,11.75,74242.3,5.23,-44.87,-44.53,0,*74
1486991109.64,25525,11.75,74238.5,5.23,-44.41,-44.41,0,*7C
1486991110.89,25526,11.75,74242.0,5.23,-45.27,-45.07,0,*7D
1486991112.15,25527,11.75,74242.8,5.21,-44.87,-44.73,0,*77
1486991113.37,25528,11.75,74236.8,5.23,-44.07,-44.01,0,*77
1486991114.59,25529,11.75,74236.8,5.23,-44.07,-44.01,0,*76
1486991115.81,25530,11.75,74238.5,5.23,-45.13,-45.27,0,*7F
1486991117.0,25531,11.75,74242.3,5.23,-45.67,-45.67,0,*79
1486991118.22,25532,11.75,74238.8,5.23,-43.87,-43.67,0,*74
1486991119.46,25533,11.75,74240.3,5.23,-44.67,-44.67,0,*7B
1486991120.68,25534,11.75,74240.3,5.23,-45.73,-45.53,0,*7E
1486991121.89,25535,11.75,74240.0,5.23,-45.95,-46.01,0,*73
1486991123.13,25536,11.75,74242.0,5.21,-44.53,-44.33,0,*7A
1486991124.38,25537,11.75,74240.3,5.21,-44.73,-44.53,0,*7F
1486991125.63,25538,11.75,74236.8,5.21,-45.07,-44.87,0,*7B
1486991126.86,25539,11.75,74240.5,5.19,-44.79,-44.93,0,*7C
1486991128.07,25540,11.75,74242.8,5.19,-45.21,-44.99,0,*74
1486991129.3,25541,11.75,74242.3,5.21,-46.83,-46.83,0,*7C
1486991130.5,25542,11.75,74238.3,5.19,-44.53,-44.41,0,*77
1486991131.74,25543,11.75,74240.8,5.21,-44.33,-44.27,0,*7B
1486991132.97,25544,11.75,74244.0,5.19,-44.93,-44.79,0,*76
1486991134.21,25545,11.75,74236.5,5.21,-44.33,-44.27,0,*7D
1486991135.48,25546,11.75,74240.8,5.21,-43.29,-43.09,0,*79
1486991136.72,25547,11.75,74240.8,5.19,-44.99,-44.93,0,*7B
1486991137.91,25548,11.75,74240.8,5.19,-45.33,-45.33,0,*7E
1486991139.11,25549,11.75,74240.8,5.19,-44.07,-43.95,0,*73
1486991140.31,25550,11.75,74238.8,5.19,-43.95,-43.87,0,*74
1486991141.54,25551,11.75,74238.0,5.19,-43.67,-43.49,0,*7A
1486991142.79,25552,11.75,74238.8,5.21,-43.67,-43.49,0,*72
1486991144.03,25553,11.75,74238.5,5.21,-43.81,-43.61,0,*71
1486991145.27,25554,11.75,74242.0,5.21,-44.67,-44.53,0,*7F
1486991146.53,25555,11.75,74240.8,5.21,-44.67,-44.47,0,*7B
1486991147.77,25556,11.75,74240.5,5.21,-43.87,-43.81,0,*7C
1486991149.02,25557,11.75,74238.0,5.21,-44.21,-44.07,0,*7F
1486991150.28,25558,11.75,74240.8,5.21,-44.67,-44.47,0,*76
1486991151.52,25559,11.75,74242.3,5.21,-43.21,-43.01,0,*77
1486991152.75,25560,11.75,74240.8,5.23,-43.41,-43.29,0,*73
1486991153.97,25561,11.75,74240.5,5.23,-43.81,-43.61,0,*72
1486991155.21,25562,11.75,74240.3,5.23,-44.47,-44.47,0,*7F
1486991156.41,25563,11.75,74238.8,5.23,-43.61,-43.49,0,*74
1486991157.62,25564,11.75,74242.5,5.25,-43.01,-42.89,0,*7E
1486991158.84,25565,11.75,74240.0,5.25,-43.21,-43.01,0,*7C
1486991160.07,25566,11.75,74238.8,5.25,-44.01,-43.95,0,*77
1486991161.3,25567,11.75,74240.5,5.25,-44.79,-44.67,0,*73
1486991162.53,25568,11.75,74238.0,5.25,-44.87,-44.67,0,*7D
1486991163.75,25569,11.75,74238.3,5.25,-43.81,-43.75,0,*79
1486991164.99,25570,11.75,74236.5,5.25,-44.21,-43.95,0,*72
1486991166.2,25571,11.75,74236.5,5.25,-43.61,-43.35,0,*7A
1486991167.45,25572,11.75,74240.8,5.25,-44.47,-44.21,0,*78
1486991168.68,25573,11.75,74242.0,5.25,-43.55,-43.41,0,*7C
1486991169.91,25574,11.75,74238.5,5.25,-44.67,-44.61,0,*78
1486991171.1,25575,11.75,74238.0,5.25,-44.61,-44.41,0,*7D
1486991172.36,25576,11.75,74238.8,5.31,-43.75,-43.67,0,*7A
1486991173.55,25577,11.75,74238.5,5.29,-43.87,-43.75,0,*7C
1486991174.8,25578,11.75,74236.5,5.29,-44.33,-44.21,0,*7D
1486991176.08,25579,11.75,74240.5,5.31,-43.67,-43.29,0,*7C
1486991177.27,25580,11.75,74236.5,5.29,-43.95,-43.87,0,*7A
1486991178.5,25581,11.75,74236.8,5.29,-43.55,-43.35,0,*7E
1486991179.72,25582,11.75,74238.0,5.29,-44.13,-43.95,0,*72
1486991180.92,25583,11.75,74236.3,5.29,-43.95,-43.75,0,*74
1486991182.15,25584,11.75,74236.3,5.31,-44.79,-44.61,0,*7D
1486991183.38,25585,11.75,74238.5,5.29,-43.75,-43.67,0,*7F
1486991184.58,25586,11.75,74240.0,5.29,-43.49,-43.35,0,*74
1486991185.78,25587,11.75,74234.5,5.29,-43.49,-43.15,0,*77
1486991187.01,25588,11.75,74238.8,5.29,-42.83,-42.63,0,*7F
1486991188.29,25589,11.75,74238.8,5.31,-43.09,-42.95,0,*7D
1486991189.5,25590,11.75,74238.8,5.33,-43.61,-43.49,0,*79
1486991190.75,25591,11.75,74238.8,5.33,-44.73,-44.73,0,*72
1486991191.94,25592,11.75,74236.5,5.29,-45.41,-45.33,0,*7F
1486991193.19,25593,11.75,74236.8,5.31,-44.93,-44.61,0,*7F
1486991194.44,25594,11.75,74236.3,5.29,-44.21,-44.13,0,*7D
1486991195.69,25595,11.75,74238.3,5.31,-44.41,-44.21,0,*72
1486991196.94,25596,11.75,74238.3,5.31,-44.61,-44.73,0,*74
1486991198.16,25597,11.75,74236.5,5.31,-43.95,-43.87,0,*75
1486991199.36,25598,11.75,74236.5,5.29,-43.95,-43.87,0,*73
1486991200.58,25599,11.75,74240.3,5.31,-45.13,-44.99,0,*7B
1486991201.85,25600,11.75,74236.5,5.31,-43.55,-43.29,0,*70
1486991203.13,25601,11.75,74238.5,5.31,-43.67,-43.55,0,*7B
1486991204.36,25602,11.75,74234.8,5.29,-44.13,-43.95,0,*79
1486991205.61,25603,11.81,74240.5,5.31,-43.15,-42.95,0,*71
1486991206.84,25604,11.75,74238.8,5.31,-43.95,-43.95,0,*7F
1486991208.09,25605,11.75,74236.5,5.31,-43.67,-43.35,0,*79
1486991209.31,25606,11.75,74242.0,5.31,-45.41,-45.13,0,*7A
1486991210.55,25607,11.75,74240.0,5.31,-44.41,-44.33,0,*79
1486991211.78,25608,11.75,74240.3,5.31,-43.95,-43.95,0,*73
1486991213.01,25609,11.75,74236.3,5.31,-45.21,-44.99,0,*70
1486991214.22,25610,11.75,74240.3,5.31,-45.33,-45.33,0,*7A
1486991215.47,25611,11.75,74236.0,5.31,-44.13,-43.95,0,*72
1486991216.7,25612,11.75,74236.3,5.31,-44.07,-43.95,0,*74
1486991217.95,25613,11.75,74238.8,5.31,-43.67,-43.49,0,*75
1486991219.23,25614,11.75,74238.0,5.31,-44.21,-44.13,0,*7F
1486991220.48,25615,11.75,74236.3,5.31,-44.41,-44.33,0,*7A
1486991221.68,25616,11.81,74242.0,5.29,-45.53,-45.41,0,*76
1486991222.9,25617,11.75,74238.8,5.31,-45.41,-45.33,0,*78
1486991224.15,25618,11.75,74240.0,5.29,-44.73,-44.21,0,*7C
1486991225.34,25619,11.81,74240.0,5.29,-43.15,-42.89,0,*7E
1486991226.61,25620,11.75,74234.3,5.31,-44.33,-44.33,0,*79
1486991227.84,25621,11.75,74236.3,5.31,-43.49,-43.49,0,*78
1486991229.1,25622,11.75,74236.3,5.31,-43.75,-43.67,0,*78
1486991230.32,25623,11.75,74238.3,5.31,-43.95,-43.87,0,*79
1486991231.57,25624,11.75,74236.3,5.31,-43.67,-43.49,0,*71
1486991232.77,25625,11.75,74236.3,5.33,-42.89,-42.89,0,*7E
1486991233.99,25626,11.75,74236.5,5.35,-43.87,-43.87,0,*7B
1486991235.26,25627,11.75,74236.5,5.35,-43.29,-43.21,0,*72
1486991236.47,25628,11.75,74236.8,5.33,-43.61,-43.41,0,*71
1486991237.69,25629,11.75,74236.5,5.33,-43.67,-43.49,0,*7E
1486991238.9,25630,11.81,74242.0,5.33,-43.01,-42.75,0,*78
1486991240.13,25631,11.75,74238.8,5.33,-43.67,-43.61,0,*7D
1486991241.38,25632,11.75,74236.5,5.35,-43.49,-43.29,0,*78
1486991242.63,25633,11.75,74238.8,5.35,-44.01,-43.87,0,*76
1486991243.86,25634,11.81,74242.8,5.37,-44.01,-43.95,0,*70
1486991245.09,25635,11.75,74236.3,5.37,-44.21,-44.07,0,*7F
1486991246.3,25636,11.75,74238.3,5.37,-43.61,-43.41,0,*7A
1486991247.51,25637,11.75,74234.5,5.37,-43.61,-43.41,0,*7B
1486991248.74,25638,11.75,74236.8,5.37,-44.01,-43.95,0,*7C
1486991249.95,25639,11.75,74236.5,5.37,-44.07,-43.95,0,*7B
1486991251.15,25640,11.75,74234.5,5.37,-43.61,-43.41,0,*7B
1486991252.36,25641,11.75,74238.3,5.41,-43.49,-43.35,0,*72
1486991253.61,25642,11.75,74236.5,5.41,-43.67,-43.55,0,*7B
1486991254.84,25643,11.81,74240.8,5.41,-42.95,-42.89,0,*76
1486991256.06,25644,11.75,74236.8,5.41,-42.89,-42.83,0,*76
1486991257.31,25645,11.81,74236.3,5.41,-43.09,-42.95,0,*79
1486991258.54,25646,11.75,74238.8,5.41,-43.75,-43.55,0,*7C
1486991259.74,25647,11.81,74236.8,5.41,-43.35,-43.35,0,*7F
1486991260.96,25648,11.75,74236.3,5.43,-43.87,-43.87,0,*72
1486991262.21,25649,11.81,74240.8,5.43,-43.49,-43.29,0,*75
1486991263.4,25650,11.81,74240.8,5.41,-43.95,-43.87,0,*7A
1486991264.65,25651,11.75,74236.3,5.41,-44.73,-44.33,0,*7C
1486991265.84,25652,11.81,74238.5,5.41,-43.87,-43.87,0,*7B
1486991267.08,25653,11.75,74236.8,5.41,-44.13,-44.01,0,*79
1486991268.33,25654,11.81,74238.5,5.41,-43.55,-43.55,0,*7D
1486991269.56,25655,11.75,74236.0,5.41,-43.15,-43.09,0,*71
1486991270.79,25656,11.75,74236.0,5.41,-42.95,-42.75,0,*71
1486991272.06,25657,11.81,74236.3,5.43,-42.69,-42.57,0,*71
1486991273.29,25658,11.75,74238.5,5.43,-43.01,-42.89,0,*72
1486991274.56,25659,11.81,74238.5,5.43,-43.09,-42.83,0,*71
1486991275.82,25660,11.81,74240.0,5.43,-42.69,-42.63,0,*72
1486991277.04,25661,11.81,74238.5,5.45,-44.01,-43.87,0,*76
1486991278.27,25662,11.81,74236.8,5.45,-43.61,-43.55,0,*7B
1486991279.47,25663,11.75,74236.3,5.45,-43.75,-43.61,0,*78
1486991280.72,25664,11.75,74236.0,5.45,-44.21,-44.01,0,*78
1486991281.95,25665,11.81,74240.0,5.45,-43.75,-43.55,0,*79
1486991283.14,25666,11.75,74236.0,5.45,-43.15,-43.01,0,*7D
1486991284.34,25667,11.81,74236.0,5.45,-43.35,-43.15,0,*7B
1486991285.58,25668,11.75,74238.0,5.45,-44.01,-43.81,0,*79
1486991286.81,25669,11.81,74236.3,5.49,-42.95,-42.75,0,*75
1486991288.03,25670,11.75,74238.5,5.49,-42.63,-42.57,0,*74
1486991289.23,25671,11.81,74238.8,5.49,-43.41,-43.41,0,*72
1486991290.43,25672,11.81,74238.3,5.49,-43.75,-43.61,0,*74
1486991291.64,25673,11.81,74240.5,5.49,-43.21,-43.15,0,*77
1486991292.92,25674,11.81,74240.0,5.51,-44.73,-44.73,0,*7E
1486991294.12,25675,11.81,74240.5,5.49,-43.61,-43.41,0,*74
1486991295.33,25676,11.75,74234.0,5.49,-43.87,-43.81,0,*73
1486991296.58,25677,11.81,74240.5,5.51,-44.41,-44.33,0,*78
1486991297.8,25678,11.81,74238.8,5.49,-44.67,-44.61,0,*7D
1486991299.02,25679,11.75,74236.5,5.45,-44.07,-44.01,0,*70